This demonstration page uses our WeatherBlox Daily Observations layout. Learn more.

Left ArrowRight Arrow

Hourly Observations for May 1, 2015

Temp ( °F °C ) Dew Point ( °F °C ) Humidity (%) Winds ( mph kmh ) Pressure ( in mb ) Visibility ( mi km ) Precip ( " mm )
12:53 am 00:53 Clear 65 18.3 26 -3.3 23 23 SE 14 22 29.85 1011 10 16 0.00 0.00
1:53 am 01:53 Clear 63 17.2 30 -1.1 29 29 SSE 14 22 29.85 1011 10 16 0.00 0.00
2:53 am 02:53 Clear 61 16.1 31 -0.6 32 32 SE 13 20 29.85 1011 10 16 0.00 0.00
3:53 am 03:53 Clear 56 13.3 31 -0.6 39 39 SE 9 15 29.85 1011 10 16 0.00 0.00
4:53 am 04:53 Clear 54 12.2 31 -0.6 42 42 SE 9 15 29.85 1011 10 16 0.00 0.00
5:53 am 05:53 Clear 55 12.8 32 0 42 42 ESE 12 19 29.86 1011 10 16 0.00 0.00
6:53 am 06:53 Clear 55 12.8 33 0.6 44 44 ESE 10 17 29.88 1012 10 16 0.00 0.00
7:53 am 07:53 Sunny 58 14.4 35 1.7 42 42 SE 14 22 29.89 1012 10 16 0.00 0.00
8:53 am 08:53 Sunny 62 16.7 36 2.2 38 38 SSE 15 24 29.91 1013 10 16 0.00 0.00
9:53 am 09:53 Sunny 69 20.6 36 2.2 30 30 SSE 13 20 29.92 1013 10 16 0.00 0.00
10:53 am 10:53 Sunny 75 23.9 35 1.7 23 23 SE 15 24 29.93 1013 10 16 0.00 0.00
11:53 am 11:53 Sunny 81 27.2 33 0.6 18 18 SSE 13 20 29.93 1014 10 16 0.00 0.00
12:53 pm 12:53 Sunny 85 29.4 29 -1.7 13 13 ESE 20 31 29.91 1013 10 16 0.00 0.00
1:53 pm 13:53 Sunny 86 30 27 -2.8 12 12 SE 17 28 29.90 1013 10 16 0.00 0.00
2:53 pm 14:53 Sunny 87 30.6 26 -3.3 11 11 SSE 14 22 29.89 1012 10 16 0.00 0.00
3:53 pm 15:53 Sunny 87 30.6 27 -2.8 11 11 SE 16 26 29.87 1012 10 16 0.00 0.00
4:53 pm 16:53 Sunny 87 30.6 25 -3.9 10 10 SE 16 26 29.86 1011 10 16 0.00 0.00
5:53 pm 17:53 Sunny 87 30.6 25 -3.9 10 10 SE 18 30 29.85 1011 10 16 0.00 0.00
6:53 pm 18:53 Sunny 82 28 18 -8 9 9 ESE 8 13 29.71 1006 10 16 0.00 0.00
7:53 pm 19:53 Sunny 82 27.8 26 -3.3 13 13 SE 17 28 29.85 1011 10 16 0.00 0.00
8:53 pm 20:53 Clear 77 25 28 -2.2 16 16 SE 13 20 29.86 1011 10 16 0.00 0.00
9:53 pm 21:53 Clear 72 22.2 29 -1.7 20 20 SE 10 17 29.88 1012 10 16 0.00 0.00
10:53 pm 22:53 Clear 68 20 28 -2.2 22 22 SE 10 17 29.91 1013 10 16 0.00 0.00
11:53 pm 23:53 Clear 66 18.9 29 -1.7 25 25 SSE 10 17 29.91 1013 10 16 0.00 0.00

Powered by AerisWeather